This is the latest recevied weather packets stored in our database for station/object HP1CDW-13. If no packets are shown the sender has not sent any weather packets the latest 10 day(s).
| Time | Temp. | Humidity | Pressure | Rain* | Wind** | Luminosity | Snow |
|---|---|---|---|---|---|---|---|
| 1777509290 | 26.11° C | 95% | 1011.2 hPa | 0 mm | - | - | - |
| 1777508690 | 26.11° C | 96% | 1011.4 hPa | 0 mm | - | - | - |
| 1777508090 | 26.11° C | 96% | 1011.2 hPa | 0.25 mm | - | - | - |
| 1777507490 | 25.56° C | 98% | 1010.8 hPa | 1.27 mm | - | - | - |
| 1777506890 | 25.56° C | 99% | 1010.8 hPa | 1.52 mm | - | - | - |
| 1777506290 | 26.11° C | 99% | 1010.7 hPa | 1.78 mm | - | - | - |
| 1777505690 | 26.11° C | 99% | 1010.6 hPa | 2.79 mm | - | - | - |
| 1777505090 | 25.56° C | 99% | 1010.4 hPa | 7.11 mm | - | - | - |
| 1777504490 | 26.11° C | 99% | 1010.2 hPa | 10.41 mm | - | - | - |
| 1777503890 | 25.56° C | 99% | 1010.2 hPa | 22.1 mm | - | - | - |
| 1777503290 | 25.56° C | 99% | 1010.3 hPa | 25.4 mm | - | - | - |
| 1777502690 | 25.56° C | 99% | 1009.9 hPa | 25.4 mm | - | - | - |
| 1777502090 | 25.56° C | 98% | 1009.9 hPa | 24.64 mm | - | - | - |
| 1777501490 | 25.56° C | 98% | 1010 hPa | 20.57 mm | - | - | - |
| 1777500890 | 25.56° C | 98% | 1009.7 hPa | 17.78 mm | - | - | - |
| 1777500290 | 25.56° C | 98% | 1010 hPa | 6.1 mm | - | - | - |
| 1777499690 | 26.11° C | 97% | 1009.9 hPa | 4.83 mm | - | - | - |
| 1777499090 | 25.56° C | 97% | 1009.5 hPa | 8.64 mm | - | - | - |
| 1777498490 | 25.56° C | 97% | 1009.6 hPa | 12.95 mm | - | - | - |
| 1777497890 | 25° C | 96% | 1009.4 hPa | 20.32 mm | - | - | - |
| 1777497290 | 25° C | 96% | 1009.8 hPa | 31.5 mm | - | - | - |
| 1777496690 | 24.44° C | 96% | 1010.2 hPa | 44.96 mm | - | - | - |
| 1777496090 | 25° C | 96% | 1009.9 hPa | 45.47 mm | - | - | - |
| 1777495490 | 25° C | 95% | 1010.5 hPa | 41.66 mm | - | - | - |
| 1777494890 | 25.56° C | 96% | 1010 hPa | 36.83 mm | - | - | - |
* Rain latest hour (hover to see other rain measurements)
** Current wind speed in m/s (hover to see current wind gust speed)